Regional Weather Roundup
Issued by NWS

Home | Current Version | Previous Version | Graphics & Text | Print | Product List | Glossary On
Versions: 1 2 3 4 5 6 7 8 9 10 11 12 13 14 15 16 17 18 19 20 21 22 23 24 25 26 27 28 29 30 31 32 33 34 35 36 37 38 39 40 41 42 43 44 45 46 47 48 49 50
000
ASUS43 KFSD 250602
RWRSD

WEATHER ROUNDUP FOR SOUTH DAKOTA
NATIONAL WEATHER SERVICE SIOUX FALLS SD
1200 AM CST THU DEC 25 2014

NOTE: "FAIR" INDICATES FEW OR NO CLOUDS BELOW 12,000 FEET WITH NO
SIGNIFICANT WEATHER AND/OR OBSTRUCTIONS TO VISIBILITY.


SDZ001>005-009-010-012>017-250700-
NORTHWEST AND NORTH CENTRAL SOUTH DAKOTA

CITY           SKY/WX    TMP DP  RH WIND       PRES   REMARKS
FAITH            N/A     33  28  81 N14       29.45S WCI  23
MOBRIDGE       CLOUDY    29  25  85 CALM      29.47R
$$

SDZ012>016-024>037-041>051-057-063-072>074-250700-
SOUTHWEST AND SOUTH CENTRAL SOUTH DAKOTA

CITY           SKY/WX    TMP DP  RH WIND       PRES   REMARKS
RAPID CTY ARPT CLOUDY    34  27  75 N16       29.41R WCI  24
PIERRE         CLOUDY    25  23  92 NE3       29.46F
CUSTER         CLOUDY    34  20  56 W7        29.40F WCI  28
ELLSWORTH AFB  CLOUDY    32  25  73 N13       29.42R WCI  23
PHILIP         CLOUDY    30  26  85 CALM      29.45R
PINE RIDGE     CLOUDY    30  23  75 CALM      29.44F
WINNER         FAIR      36  25  64 S7        29.46R
$$

SDZ004>011-016>023-039-040-250700-
NORTHEAST SOUTH DAKOTA

CITY           SKY/WX    TMP DP  RH WIND       PRES   REMARKS
ABERDEEN       CLOUDY    28  25  88 S6        29.51R WCI  22
WATERTOWN      MOCLDY    26  23  88 S8        29.50R WCI  18
SISSETON         N/A     32  25  75 CALM      29.49R
$$

SDZ017-020-022-023-036>040-048>070-250700-
SOUTHEAST SOUTH DAKOTA

CITY           SKY/WX    TMP DP  RH WIND       PRES   REMARKS
SIOUX FALLS    CLOUDY    26  24  92 S9        29.55F WCI  17
HURON          CLOUDY    25  23  92 S7        29.51S WCI  17
MITCHELL       CLEAR     26  23  88 SE8       29.52S WCI  18
YANKTON        CLEAR     25  21  86 E6        29.56S WCI  18
$$

ABBREVIATIONS USED IN REMARKS
   TC - TEMPERATURE IN CELSIUS
  WCI - WIND CHILL INDEX
   HX - HEAT INDEX
  VSB - VISIBILITY



USA.gov is the U.S. government's official web portal to all federal, state and local government web resources and services.